Weather History for Salisbury, MD

Change the Weather History Date:

Tuesday, February 25, 2014

  Actual Average Record
Temperature  
Mean Temperature 32 °F 40 °F  
Max Temperature 38 °F 49 °F 80 °F (1930)
Min Temperature 25 °F 30 °F 3 °F (1940)
Degree Days  
Heating Degree Days 33 25  
Month to date heating degree days 645 690  
Since 1 July heating degree days 3030 3231  
Cooling Degree Days 0 0  
Month to date cooling degree days 0 0  
Year to date cooling degree days 0 0  
Moisture  
Dew Point 21 °F    
Average Humidity 58    
Maximum Humidity 84    
Minimum Humidity 32    
Precipitation  
Precipitation T in 0.12 in 1.40 in (1934)
Month to date precipitation 1.85 2.98  
Year to date precipitation 3.98 6.59  
Snow  
Snow 0.00 in 0.00 in 6.50 in (1934)
Month to date snowfall T 3.0  
Since 1 July snowfall 11.5 8.0  
Snow Depth 0.00 in    
Sea Level Pressure  
Sea Level Pressure 30.07 in    
Wind  
Wind Speed 3 mph (WNW)    
Max Wind Speed 16 mph    
Max Gust Speed 20 mph    
Visibility 8 miles    
Events Snow    
T = Trace of Precipitation, MM = Missing Value Source: NWS Daily Summary

Daily Weather History Graph

Daily Weather History Graph

Search for Another Location

Airport:

Trip Planner

Search our weather history database for the weather conditions in past years. The results will help you decide how hot, cold, wet, or windy it might be!

Date:

Astronomy

Feb. 25, 2014 Rise Set
Actual Time 6:39 AM EST 5:51 PM EST
Civil Twilight 6:12 AM EST 6:17 PM EST
Nautical Twilight 5:42 AM EST 6:48 PM EST
Astronomical Twilight 5:11 AM EST 7:19 PM EST
Moon 3:30 AM EST (2/25) 1:56 PM EST (2/25)
Length of Visible Light 12h 04m
Length of Day
11h 11m
Waning Crescent, 18% of the Moon is Illuminated
Feb 25
Waning Crescent
Mar 1
New
Mar 8
First Quarter
Mar 16
Full
Mar 23
Last Quarter

Hourly Weather History & Observations

Time (EST) Temp. Windchill Dew Point Humidity Pressure Visibility Wind Dir Wind Speed Gust Speed Precip Events Conditions
12:54 AM 32.0 °F - 15.1 °F 50% 30.14 in 10.0 mi Calm Calm - N/A   Clear
1:54 AM 30.0 °F - 16.0 °F 56% 30.14 in 10.0 mi Calm Calm - N/A   Clear
2:54 AM 30.9 °F - 16.0 °F 54% 30.12 in 10.0 mi Calm Calm - N/A   Scattered Clouds
3:54 AM 33.1 °F - 17.1 °F 52% 30.12 in 10.0 mi Calm Calm - N/A   Overcast
4:54 AM 30.9 °F - 19.9 °F 64% 30.12 in 10.0 mi Calm Calm - N/A   Overcast
5:54 AM 30.0 °F - 17.1 °F 59% 30.13 in 10.0 mi Calm Calm - N/A   Mostly Cloudy
6:54 AM 28.0 °F - 19.0 °F 69% 30.14 in 10.0 mi Calm Calm - N/A   Mostly Cloudy
7:54 AM 33.1 °F - 18.0 °F 54% 30.14 in 10.0 mi Calm Calm - N/A   Overcast
8:54 AM 35.1 °F - 15.1 °F 44% 30.14 in 10.0 mi Calm Calm - N/A   Overcast
9:54 AM 37.9 °F 35.5 °F 10.9 °F 33% 30.14 in 10.0 mi NNE 3.5 mph - N/A   Overcast
10:54 AM 37.0 °F - 12.0 °F 36% 30.12 in 10.0 mi Calm Calm - N/A   Overcast
11:54 AM 37.0 °F 34.5 °F 15.1 °F 41% 30.11 in 10.0 mi Variable 3.5 mph - N/A   Overcast
12:54 PM 35.1 °F 29.3 °F 21.9 °F 59% 30.07 in 4.0 mi West 6.9 mph - 0.00 in Snow Light Snow
12:56 PM 35.6 °F 29.9 °F 21.2 °F 56% 30.06 in 2.5 mi WSW 6.9 mph - 0.00 in Snow Light Snow
1:35 PM 33.8 °F 29.6 °F 26.6 °F 75% 30.04 in 1.8 mi West 4.6 mph - 0.00 in Snow Light Snow
1:54 PM 33.1 °F - 27.0 °F 78% 30.04 in 1.8 mi Calm Calm - 0.00 in Snow Light Snow
2:01 PM 33.8 °F 30.8 °F 26.6 °F 75% 30.03 in 3.0 mi WNW 3.5 mph - 0.00 in Snow Light Snow
2:08 PM 33.8 °F - 26.6 °F 75% 30.03 in 5.0 mi Calm Calm - 0.00 in Snow Light Snow
2:54 PM 35.1 °F 31.0 °F 28.0 °F 76% 30.02 in 10.0 mi WNW 4.6 mph - 0.00 in   Mostly Cloudy
3:07 PM 35.6 °F 29.2 °F 28.4 °F 75% 30.01 in 10.0 mi WNW 8.1 mph - N/A   Overcast
3:54 PM 36.0 °F 29.6 °F 28.0 °F 73% 30.01 in 10.0 mi NW 8.1 mph - N/A   Overcast
4:54 PM 36.0 °F 28.0 °F 27.0 °F 70% 30.02 in 10.0 mi NW 11.5 mph - N/A   Mostly Cloudy
5:26 PM 37.4 °F 30.3 °F 26.6 °F 65% 30.01 in 10.0 mi NW 10.4 mph 17.3 mph N/A   Scattered Clouds
5:54 PM 35.1 °F 28.6 °F 25.0 °F 67% 30.03 in 10.0 mi WNW 8.1 mph - N/A   Scattered Clouds
6:54 PM 32.0 °F 28.7 °F 24.1 °F 73% 30.04 in 10.0 mi NW 3.5 mph - N/A   Clear
7:54 PM 32.0 °F - 24.1 °F 73% 30.05 in 10.0 mi Calm Calm - N/A   Clear
8:54 PM 28.0 °F 24.2 °F 23.0 °F 81% 30.05 in 10.0 mi NNW 3.5 mph - N/A   Clear
9:54 PM 27.0 °F - 23.0 °F 85% 30.05 in 8.0 mi Calm Calm - N/A   Clear
10:54 PM 27.0 °F 23.0 °F 23.0 °F 85% 30.05 in 8.0 mi South 3.5 mph - N/A   Scattered Clouds
11:54 PM 28.0 °F - 23.0 °F 81% 30.05 in 8.0 mi Calm Calm - N/A   Overcast